Location: Betpouey
(42.8833°N, 0.0333°E)
Time: 07:59:27
(UTC+00:00)

Cosmos 1538 Rocket - Pass Details

Date: 01 December 2020
Orbit: 752 x 791 km, 74.0° (Epoch: 17 January)

Event Time Altitude Azimuth Distance (km) Brightness Sun altitude
Rises 17:50:24 0° 201° (SSW) 3,266 7.8 -15.0°
Reaches altitude 10° 17:52:47 10° 203° (SSW) 2,344 7.0 -15.4°
Maximum altitude 17:58:08 81° 290° (WNW) 807 4.1 -16.3°
Drops below altitude 10° 18:03:32 10° 18° (NNE) 2,365 6.2 -17.3°
Enters shadow 18:03:49 - 18° (NNE) 2,474 6.3 -17.3°
